STARLINK-2726, 48662

Orbit data source: Space-Track

STARLINK-2726, 48662 is a payload satellite owned by SpaceX/Seattle (US) in LEO that was launched on Wed, 26 May 2021 UTC via an FALCON 9 launch vehicle from the Air Force Eastern Test Range (AFETR). Payload-class satellites include a variety of spacecraft equipped with specific instruments for various scientific and technological missions. These include communications satellites like Starlink; space stations such as the ISS; scientific satellites like the Hubble; Earth observation satellites from companies like Planet Labs, Umbra, and HawkEye 360; GPS; miniature CubeSats for education and research; and military/defense satellites.

Loading next visibility...
Identifier
48662, 2021-044AA
Orbit
LEO
Country
Flag of USUS
Related business
Manufacturer
SpaceX/Seattle
Mission
Operational Commercial Communications
Bus & Motor
STARLINK, Unknown motor
Mass
260 kg wet, ~248 kg dry
Launch date (UTC)
2021-05-26 (5 years ago)
Launch vehicle
FALCON 9
Launch site
Air Force Eastern Test Range (AFETR)
Object type
Payload
Rocket body
Debris
Shape & HBR
Box + 1 Pan, 10.1 m
Radar Cross Section
13.562 m², Large (>1 m²)

Expand to show TLE details & history
Last TLE update: 21 hours ago

TLE from 21 hours ago
0 STARLINK-2726
1 48662U 21044AA  25348.72701744  .00002806  00000-0  20724-3 0  9995
2 48662  53.0528 133.0306 0001335 100.2517 259.8623 15.06388730251043
Epoch: 2025-12-14T17:26Z
TLE epoch observation values (Epoch: 2025-12-14T17:26:54.306Z)
Latitude
-0°
Longitude
147.66854°
Altitude
548.288 km
Speed
7.589 km/s
True Right ascension
08h 52m 07s
True Declination
0° 00' 00"
Sunlit
Object was in full shadow at epoch
Visualization orbit readout
Latitude
Unknown
Longitude
Unknown
Altitude
Unknown
Speed
Unknown
Apparent Right ascension
Unknown
Apparent Declination
Unknown
Sunlit
N/A
Visualization observer readout
Local Sidereal Time
13:24:39
Azimuth
Unknown
Elevation
Unknown
Doppler factor
Unknown
Orbital elements
Apogee altitude
548.442 km
Perigee altitude
546.593 km
Semi-major axis
6,925.654 km
Eccentricity
0.00013
Inclination
53.0528°
RAAN
133.0306°
Arg. of periapsis
100.2517°
True anomaly
259.84724°
Mean anomaly
259.8623°
Eccentric anomaly
259.85477°
Mean motion
3.76575 °/min
Orbital period
95.6 mins
BSTAR
0.00020724
Loading maneuver chart data...
Computing Atmospheric mass density...
Loading historical data...
Loading historical data...
Loading historical data...
Loading historical data...
Loading historical data...
Loading historical data...
Loading historical data...

Documentation

Showing up to 5 results
|